Regional Weather Roundup
Issued by NWS Sterling, VA

Home | Current Version | Previous Version | Graphics & Text | Print | Product List | Glossary On
Versions: 1 2 3 4 5 6 7 8 9 10 11 12 13 14 15 16 17 18 19 20 21 22 23 24 25 26 27 28 29 30 31 32 33 34 35 36 37 38 39 40 41 42 43 44 45 46 47 48 49 50
000
ASUS41 KLWX 272010
RWRLWX

REGIONAL WEATHER ROUNDUP
NATIONAL WEATHER SERVICE BALTIMORE MD/WASHINGTON DC
400 PM EDT THU AUG 27 2015

Note: "FAIR" indicates few or no clouds below 12,000 feet
with no significant weather and/or obstructions to visibility.
 TC=TEMPERATURE CELSIUS

 * =Non NWS site. Station does not report precipitation (e.g. rain,
    snow, etc.), thunder, or fog.

DCZ001-MDZ009-015-VAZ040>042-051-053>054-272100-
WASHINGTON METRO

CITY           SKY/WX    TMP DP  RH WIND       PRES   REMARKS
WASHINGTON NAT PTSUNNY   82  54  37 VRB6      30.08F
DULLES         PTSUNNY   77  52  41 NW6       30.10F
ANDREWS AFB    MOSUNNY   80  52  37 NW7       30.07F
FT BELVOIR     MOSUNNY   80  53  40 NW9       30.08F
QUANTICO       PTSUNNY   81  54  39 N7        30.09F
COLLEGE PARK*  CLOUDY    79  52  38 N6        30.08S
LEESBURG*      MOSUNNY   81  57  44 NW7       30.10F
MANASSAS*      SUNNY     81  54  39 NW7       30.09F
GAITHERSBURG*  CLOUDY    75  55  50 CALM      30.13F

$$

MDZ006>007-011-014-272100-
BALTIMORE METRO

CITY           SKY/WX    TMP DP  RH WIND       PRES   REMARKS
BWI AIRPORT    PTSUNNY   77  53  43 N8        30.08F
MD SCIENCE CTR   N/A     77  54  44 MISG      30.08F
MARTIN STATE   MOSUNNY   79  59  50 N5        30.09F
ANNAPOLIS      CLOUDY    77  55  46 N5        30.08F
FORT MEADE*    PTSUNNY   77  57  50 N7        30.10F

$$

MDZ012-015-019>023-272100-
MARYLAND EASTERN SHORE

CITY           SKY/WX    TMP DP  RH WIND       PRES   REMARKS
OCEAN CITY     CLOUDY    76  62  62 SE8       30.07F
SALISBURY      PTSUNNY   78  57  48 NW6       30.07F
BAY BRIDGE AP*   N/A     77  52  41 N6        30.08F
CAMBRIDGE*     SUNNY     79  52  38 NW7       30.07F
EASTON*        MOSUNNY   81  57  44 NW7       30.11F

$$

MDZ017>025-272100-
SOUTHERN MARYLAND

CITY           SKY/WX    TMP DP  RH WIND       PRES   REMARKS
PATUXENT RIVER PTSUNNY   79  58  48 NE9       30.08F
ST INIGOES     MOSUNNY   79  61  53 NE3       30.07F
LEONARDTOWN*   PTSUNNY   75  57  53 CALM      30.09F

$$

MDZ003>005-272100-
NORTH CENTRAL MARYLAND

CITY           SKY/WX    TMP DP  RH WIND       PRES   REMARKS
FREDERICK*     CLOUDY    79  55  44 N6        30.12F
HAGERSTOWN APT CLOUDY    76  51  41 N12       30.11F
WESTMINSTER*   CLOUDY    75  55  50 NW3       30.11F

$$

MDZ501>502-272100-
WESTERN MARYLAND

CITY           SKY/WX    TMP DP  RH WIND       PRES   REMARKS
OAKLAND*       CLOUDY    61  48  63 NW3       30.20F
CUMBERLAND*    PTSUNNY   73  50  43 NW7       30.16F

$$

VAZ025>031-272100-
SHENANDOAH VALLEY

CITY           SKY/WX    TMP DP  RH WIND       PRES   REMARKS
WINCHESTER*    CLOUDY    77  50  38 N5        30.11F
FRONT ROYAL*   MOCLDY    79  52  38 N3        30.09F
LURAY*         FAIR      79  52  38 CALM      30.10F
NEW MARKET*    MOCLDY    77  54  43 S5        30.08F
STAUNTON*      PTSUNNY   82  51  34 SE5       30.12F
WAYNESBORO*    FAIR      78  52  39 CALM      30.11F

$$

WVZ021-048>050-054>055-272100-
EASTERN WEST VIRGINIA PANHANDLE

CITY           SKY/WX    TMP DP  RH WIND       PRES   REMARKS
MARTINSBURG    CLOUDY    76  53  44 NW9       30.11F
PETERSBURG*    CLOUDY    76  53  44 N6        30.12F

$$

VAZ036>039-050-272100-
CENTRAL FOOTHILLS

CITY           SKY/WX    TMP DP  RH WIND       PRES   REMARKS
CHARLOTTESVILL PTSUNNY   79  55  43 CALM      30.08F
CULPEPER*      MOSUNNY   78  56  47 N6        30.10F
ORANGE*        PTSUNNY   81  54  39 CALM      30.10F
GORDONSVILLE*  FAIR      79  57  46 CALM      30.08F
WARRENTON*     FAIR      81  57  43 N5        30.09F

$$

VAZ055>057-272100-
NORTH AND CENTRAL PIEDMONT

CITY           SKY/WX    TMP DP  RH WIND       PRES   REMARKS
FREDERICKSBRG* MOSUNNY   82  57  41 N3G9      30.08S
STAFFORD*      MOSUNNY   79  54  41 N5        30.13S

$$

NCZ024-NYZ072-PAZ021-071-VAZ022-071-272100-
OTHER REGIONAL OBSERVATIONS

CITY           SKY/WX    TMP DP  RH WIND       PRES   REMARKS
NEW YORK CITY  PTSUNNY   79  51  37 MISG      30.06F
PHILADELPHIA   PTSUNNY   80  51  36 NW13G22   30.06F
PITTSBURGH     CLOUDY    68  54  60 VRB3      30.15F
ROANOKE        MOSUNNY   79  56  45 N6        30.12F
RICHMOND       PTSUNNY   81  56  42 NE5       30.08S
RALEIGH        PTSUNNY   83  61  47 E7        30.06F

$$

ANZ530>537-272100-
MARINE OBSERVATIONS

STATION/POSITION TIME  TEMP    WIND        PRES
                       AIR SEA DIR/SP/G
                 (UTC) (F)     (DEG/KT/KT) (MB)
THOMAS PT LIGHT  2000   75      60/  8       N/A
BALT KEY BRIDGE  1900   76     310/  8/ 10   N/A
COVE POINT       1900   72      40/  6/  8   N/A
LEWISETTA        1900   76     360/  2/  6   N/A
SOLOMONS ISLAND  1900      81                N/A
PINEY POINT      1900          300/  5/  6   N/A

$$




USA.gov is the U.S. government's official web portal to all federal, state and local government web resources and services.